Find KUIPER-00454

NORAD ID: 68948 Int'l Des: 2026-098AF Owner: KUIP Country: US Constellation: amazon-leo operational
LEOCIRCULAR

Current View

Loading 3D Globe...

About KUIPER-00454

KUIPER-00454 (NORAD 68948) is a amazon-leo constellation satellite launched Apr 30, 2026 by KUIP of US. It operates in LEO, CIRCULAR orbit with a mass of 490.00 kg.

About KUIPER-00454

Description loading...

Upcoming Passes

Passes for default location (London). Set your location on the main map for personalized predictions.

Altitude History

Loading altitude history...

Two-Line Element Set

1 68948U 26098AF 26170.83335647 -.01266898 00000-0 -55146-1 0 9999
2 68948 51.8790 57.1452 0016037 147.0497 233.0558 15.24535434 2093
Epoch: Jun 19, 2026 • Age: 5 hours

Current Status

Altitude 491.8 km
Velocity 7.63 km/s
Sub-Earth Point 50.47°N, 119.35°W
Launch Date Apr 30, 2026
Age 0.1 years
Type internet

Technical Details

Classification Payload
Mass 490.00 kg
Dry Mass 490.00 kg
Total Mass 490.00 kg
Length 1.80 m
Diameter 0.70 m
Span 5.00 m
Shape Box + 2 pan
Manufacturer KUIP
Bus Type Kuiper
Phase Status In Orbit
Owner/State KUIP/US

Most Searched